Location: Clanezzo
(45.7500°N, 9.6000°E)
Time: 03:12:26
(UTC+00:00)

EO-79 - Pass Details

Date: 03 July 2022
Orbit: 588 x 603 km, 98.0° (Epoch: 13 August)

Event Time Altitude Azimuth Distance (km) Brightness Sun altitude
Rises 01:16:42 0° 11° (NNE) 2,857 ? -16.8°
Reaches altitude 10° 01:18:53 10° 10° (N) 1,952 ? -16.6°
Maximum altitude 01:23:07 77° 286° (WNW) 623 ? -16.3°
Enters shadow 01:25:08 30° 204° (SSW) 1,079 ? -16.1°
